Contact Us:
Email: info@sawbill.com
Phone: (218)663-7150
Fax: (218)663-7980
Mail: 4620 Sawbill Trail
Box 2129
Tofte, MN 55615


Powered by
Movable Type 3.15
 
Sawbill Weather History
Check out the 7 Day Weather Forecast for the Superior National Forest.
Date High
Temperature
Low
Temperature
Barometric
Pressure
Relative
Humidity 7AM
9 AM
Temperature
Moisture Snow
4/22/14 45 25 30.14 65% 34 0
4/21/14 54 32 30.06 65% 33 Trace Trace
4/20/14 54 32 30.00 65% 39 Trace
4/19/14 36 28 30.10 92% 34 .44" 3
4/18/14 38 24 30.24 76% 29 Trace Trace
4/17/14 33 24 30.28 77% 24 .26" 2"
4/16/14 30 11 30.16 77% 27 .25" 2.5"
4/15/14 26 8 30.14 46% 11 0
4/14/14 25 13 30.04 59% 13 Trace Trace
4/13/14 38 16 30.02 48% 16 0
4/12/14 42 28 29.98 91% 33 Trace Trace
4/11/14 47 28 29.98 66% 34 0
4/10/14 45 26 29.98 68% 30 0
4/9/14 50 31 29.74 54% 37 0
4/8/14 43 30 29.80 55% 31 0
4/7/14 44 31 29.98 79% 31 .22"
4/6/14 45 28 29.92 83% 29 0
4/5/14 43 9 30.01 74% 35 0
4/4/14 34 8 30.03 79% 9 Trace Trace
4/3/14 35 24 30.00 79% 24 .37" 3"
4/2/14 34 12 30.16 64% 24 0
4/1/14 17 10 30.12 71% 12 .16" 2"
3/31/14 42 12 29.74 65% 12 .05" .5"
3/30/14 48 27 30.01 57% 37 0
3/29/14 35 7 30.02 67% 27 0
3/28/14 29 7 30.19 51% 7 0
3/27/14 28 12 30.05 64% 12 .25" 2.5"
3/26/14 24 -6 29.85 73% 22 .01" 1"
3/25/14 14 -10 30.06 44% -6 0
3/24/14 21 -2 30.05 53% -2 Trace Trace
3/23/14 15 -7 30.13 45% -1 Trace Trace
3/22/14 12 -5 30.27 61% -2 Trace Trace
3/21/14 31 4 30.12 61% 4 .5" 5"
3/20/14 34 18 30.00 65% 20 0
3/19/14 29 20 30.02 75% 24 Trace Trace
3/18/14 28 20 29.96 75% 20 Trace Trace
3/17/14 22 14 30.00 78% 22 0
3/16/14 21 -15 29.88 72% 14 .1" 1"
3/15/14 14 -19 30.31 39% -15 0
3/14/14 34 4 30.12 61% 7 .14" 1.5"
3/13/14 39 5 29.74 79% 34 0
3/12/14 15 -2 29.97 48% 5 0
3/11/14 35 -2 30.10 42% -2 0
3/10/14 47 28 29.86 61% 29 0
3/9/14 39 23 29.74 81% 23 0
3/8/14 23 8 29.86 63% 23 0
3/7/14 26 10 30.20 56% 10 Trace Trace
3/6/14 25 9 29.96 80% 24 .14" 1"
3/5/14 10 0 30.14 40% 9 0
3/4/14 15 -14 30.38 40% 0 Trace Trace
3/3/14 9 -13 30.16 64% -4 Trace Trace
3/2/14 0 -22 30.28 65% -13 0
3/1/14 -4 -24 30.22 56% -22 0
2/28/14 2 -13 30.12 58% -13 Trace Trace
2/27/14 -6 -24 30.00 58% -7 0
2/26/14 4 -24 30.00 64% -24 .15" 1"
2/25/14 1 -13 29.88 64% -11 Trace Trace
2/24/14 9 -11 30.06 68% -11 0
2/23/14 6 -3 30.06 60% -3 Trace Trace
2/22/14 12 0 29.92 62% 20 0
2/21/14 21 0 29.76 64% 0 .4" 5"
2/20/14 33 19 29.44 81% 19 .82" 9"
2/19/14 33 20 29.86 69% 24 0
2/18/14 35 18 29.80 79% 20 0
2/17/14 21 11 29.81 87% 21 .12" 1.5"
2/16/14 11 -16 29.98 66% -11 .06" 1"
2/15/14 9 -16 30.14 66% -15 .1" 1"
2/14/14 7 -10 30.00 66% 5 .06" 1"
2/13/14 18 -9 29.92 66% -8 .12" 2"
2/12/14 11 5 29.78 73% 11 .09" 2"
2/11/14 11 -19 30.02 62% 6 .07" 1"
2/10/14 1 -19 30.20 54% -19 0
2/9/14 0 -13 30.18 54% -13 0
2/8/14 11 -19 30.10 56% -8 0
2/7/14 8 -20 30.06 56% -19 0
2/6/14 2 -14 29.98 60% -3 0
2/5/14 3 -14 30.14 62% -14 0
2/4/14 6 -7 30.30 58% -5 0
2/3/14 13 -15 30.26 58% -5 0
2/2/14 6 -10 30.10 58% -3 0
2/1/14 12 -12 30.10 58% -10 .2" 2"
1/31/14 5 -15 29.98 58% 0 Trace Trace
1/30/14 3 -14 29.92 58% -14 0
1/29/14 16 0 29.78 58% 1 0
1/28/14 -3 -22 29.88 67% -3 0
1/27/14 -10 -22 30.02 67% -22 Trace Trace
1/26/14 2 -23 30.02 67% -22 Trace Trace
1/25/14 -3 -10 29.70 67% -3 .11" 1"
1/24/14 21 -8 29.74 67% -8 .17" 2"
1/23/14 8 -21 29.74 58% 8 .12" 1.5"
1/22/14 -3 -21 30.36 58% -21 0
1/21/14 0 -19 29.98 58% -6 0
1/20/14 -6 -20 30.16 58% -18 0
1/19/14 16 -11 30.08 62% -11 0
1/18/14 21 3 29.74 68% 16 .09" 1"
1/17/14 6 -12 29.92 74% 3 Trace Trace
1/16/14 17 0 29.94 74% 0 .17" 2.5"
1/15/14 15 -4 29.60 81% 15 .45" 5.5"
1/14/14 10 -6 30.00 63% -5 0
1/13/14 22 4 29.76 63% 5 0
1/12/14 29 20 29.74 71% 20 Trace Trace
1/11/14 25 18 29.74 93% 23 Trace Trace
1/10/14 24 17 30.12 95% 24 0
1/9/14 19 -1 29.90 92% 19 Trace Trace
1/8/14 -1 -18 30.12 77% -2 0
1/7/14 -11 -21 30.12 77% -16 0
1/6/14 -19 -31 29.92 77% -21 0
1/5/14 -14 -31 30.02 77% -30 0
1/4/14 13 -20 30.10 77% -19 0
1/3/14 14 -2 30.10 77% 5 .14" 1.5"
1/2/14 -2 -30 30.00 77% -2 Trace Trace
1/1/14 -7 -31 30.30 77% -30 0
12/31/13 -14 -24 30.30 77% -21 0
12/30/13 -6 -24 30.06 77% -23 0
12/29/13 -9 -24 30.10 77% -21 0
12/28/13 28 -16 30.12 77% -16 .14" 1.5"
12/27/13 28 12 29.94 95% 26 0
12/26/13 -11 -12 30.01 66% 12 0
12/25/13 12 -12 30.06 66% -10 Trace Trace
12/24/13 11 2 30.02 66% 7 .11" 1.5"
12/23/13 2 -16 30.24 66% 2 Trace Trace
12/22/13 3 -12 30.22 66% -8 .11" 1"
12/21/13 17 0 30.03 66% 0 .09" 2"
12/20/13 15 -7 30.00 71% 12 .02" .2"
12/19/13 6 -9 30.06 74% -8 .05" .5"
12/18/13 15 -4 30.04 74% -1 .03" .3"
12/17/13 16 -6 29.92 72% 12 .05" .5"
12/16/13 12 0 29.86 71% 12 .17" 2.5"
12/15/13 0 -27 30.10 77% -1 0
12/14/13 9 -17 30.02 67% -17 0
12/13/13 -6 -25 29.98 68% -11 0
12/12/13 3 -17 29.92 67% -17 0
12/11/13 -6 -16 30.10 71% -9 0
12/10/13 -2 -16 30.16 71% -16 0
12/9/13 2 -14 29.86 71% -14 Trace Trace
12/8/13 7 -17 29.90 71% -14 .12" 1.5"
12/7/13 -1 -18 30.24 71% -17 0
12/6/13 3 -15 30.22 71% -10 0
12/5/13 11 -7 30.09 71% -6 .06" .5"
12/4/13 21 10 29.74 71% 10 .48" 5"
 


Home I Trip Planning I Rentals and Outfitting I Reservations I Campgrounds I Sawbill Store I Sawbill News I Contact

© 1997 - 2014, Sawbill Canoe Outfitters, Inc. I Privacy Policy